Location: Dittelbrunn
(50.0738°N, 10.2196°E)
Time: 22:28:04
(UTC+00:00)

Cosmos 1125 Rocket - Pass Details

Date: 18 September 2020
Orbit: 757 x 780 km, 74.0° (Epoch: 20 October)

Event Time Altitude Azimuth Distance (km) Brightness Sun altitude
Rises 18:57:45 0° 174° (S) 3,245 6.5 -15.3°
Reaches altitude 10° 19:00:17 10° 166° (SSE) 2,324 5.7 -15.7°
Maximum altitude 19:05:01 34° 102° (ESE) 1,257 4.1 -16.4°
Drops below altitude 10° 19:09:47 10° 39° (NE) 2,344 5.9 -17.1°
Sets 19:12:21 0° 30° (NNE) 3,276 6.7 -17.4°
